Regional Weather Roundup
Issued by NWS

Home | Current Version | Previous Version | Text Only | Print | Product List | Glossary Off
Versions: 1 2 3 4 5 6 7 8 9 10 11 12 13 14 15 16 17 18 19 20 21 22 23 24 25 26 27 28 29 30 31 32 33 34 35 36 37 38 39 40 41 42 43 44 45 46 47 48 49 50

000
ASUS45 KCYS 272010
RWRWY

WYOMING REGIONAL WEATHER ROUNDUP
NATIONAL WEATHER SERVICE CHEYENNE WY
200 PM MDT MON JUL 27 2015

NOTE:  "FAIR" INDICATES FEW OR NO CLOUDS BELOW 12,000 FEET
WITH NO SIGNIFICANT WEATHER AND/OR OBSTRUCTIONS TO VISIBILITY.

WYZ001-272100-
YELLOWSTONE NATIONAL PARK

CITY           SKY/WX    TMP DP  RH WIND       PRES   REMARKS
LK YELLOWSTONE   N/A     50  40  68 W13G30    30.08R
W YELLOWSTONE  NOT AVBL

$$
WYZ002>013-054>058-071-098>099-272100-
NORTHERN WYOMING

CITY           SKY/WX    TMP DP  RH WIND       PRES   REMARKS
JACKSON        CLOUDY    52  39  62 SW16G35   30.07R
CODY           FAIR      72  54  53 N14G20    29.77F
GREYBULL       FAIR      84  46  26 VRB3      29.66F
WORLAND        FAIR      86  49  27 NE8       29.67F
SHERIDAN       FAIR      79  52  38 MISG      29.74F
BUFFALO        FAIR      77  52  41 NE13G22   29.80F
GILLETTE       PTSUNNY   85  46  25 SW13G22   29.73S THUNDER
HULETT         FAIR      90  43  19 S22G29    29.73F
NEWCASTLE      FAIR      73  55  53 MISG      29.78F

$$
WYZ014>020-022>026-101>103-272100-
CENTRAL WYOMING

CITY           SKY/WX    TMP DP  RH WIND       PRES   REMARKS
BIG PINEY      FAIR      74  36  25 W28G37    29.99R
PINEDALE       FAIR      68  37  32 W29G39    29.98R
DUBOIS         FAIR      70  30  23 W8        29.89F
LANDER         FAIR      86  28  12 S24G38    29.75F
RIVERTON       FAIR      89  24   9 SW26G37   29.75F
CASPER         FAIR      89  30  12 S28G38    29.78F
DOUGLAS        FAIR      95  39  14 SW13      29.78F THUNDER HX  91

$$
WYZ021-027>030-104>119-272100-
SOUTHERN WYOMING

CITY           SKY/WX    TMP DP  RH WIND       PRES   REMARKS
EVANSTON       FAIR      67  39  35 W18G28    30.11R
KEMMERER       FAIR      59  37  44 W39G52    30.10R
FORT BRIDGER   CLEAR     72  39  30 W35G48    30.09R
ROCK SPRINGS   FAIR      80  28  15 SW35G46   29.92S
DIXON          FAIR      78  47  33 SW31G40   29.97F
RAWLINS        FAIR      81  43  26 S24G33    29.95F
SARATOGA       FAIR      82  39  21 W18G29    29.98F
LARAMIE        FAIR      83  39  21 SW22G28   30.00F
CHEYENNE       FAIR      89  42  19 S10G20    29.92F
TORRINGTON     FAIR      92  52  25 SE13      29.77F
PINE BLUFFS    FAIR      90  48  24 SW6       29.86F

$$


USA.gov is the U.S. government's official web portal to all federal, state and local government web resources and services.